sat.trackr.live / text

‹ back to catalog

STARLINK-4398

NORAD 53466 · 2022-099B

PAYLOAD ACTIVE UNKNOWN

§ Identity

Operator
Country
US
Launch date
2022-08-12
Launch site
AFWTR
Launch vehicle
Mass (kg)
RCS (m²)

Purposes: comms

External: N2YO · Heavens-Above · Gunter

§ Orbital elements

Epoch: 2026-09-19T20:37:10.896960Z

Period
93.69 min
Inclination
97.4744°
Eccentricity
0.0000675
Mean motion
15.36966666 rev/d
Perigee alt
454.6 km
Apogee alt
455.5 km
Semi-major
6,833.2 km
B*
1.7731e-5
RAAN
29.7188°
Arg perigee
144.8418°
Mean anomaly
215.2871°
Rev number
22,575

§ Raw data

STARLINK-43981 53466U 22099B   26262.85915390  .00000558  00000+0  17731-4 0  99942 53466  97.4744  29.7188 0000675 144.8418 215.2871 15.36966666225755

JSON: /api/v1/satellites/53466 · /tle

For live sub-satellite position, see the globe view (requires WebGL).

§ Visibility from observer

Set your observer location to see the next 7 days of passes ≥ 10°. The values pass through the URL so the page stays shareable.

No JS? Fill the form by hand. The geolocation button needs JavaScript.